contact:dominique.lefevre@mio.osupytheas.fr, maurice.libes@osupytheas.fr, didier.mallarino@osupytheas.fr
Project:EMSO http://www.emso-fr.org/EMSO-France
Depth: 2436.0 m
Title:EMSO Ligure Ouest : Data MII capteur AQUADOPP
Date,Latitude,Longitude,X_East,Y_North,Z_Up,Amplitude_X,Amplitude_Y,Amplitude_Z,Batterie,SoundSpeed,Heading,Pitch,Roll,Pressure,TIS,Speed,Direction
, degrees North, degrees East, m.s-1, m.s-1,m.s-1, 1, 1, 1, Volt, m.s-1, degree, degree, degree, dbar, degree_C, m.s-1, degree
2022-02-27T00:04:03,42.805,6.029,-0.038,0.0,-0.028,104.0,103.0,102.0,13.4,1505.2,326.9,-0.7,1.8,2470.771,13.28,0.038,270.0
2022-02-27T00:07:03,42.805,6.029,-0.038,0.003,-0.018,103.0,104.0,101.0,13.4,1505.2,327.8,-0.8,1.8,2470.699,13.28,0.038,274.5
2022-02-27T00:10:03,42.805,6.029,-0.031,0.004,-0.054,104.0,105.0,102.0,13.3,1505.2,326.5,-0.7,1.9,2470.671,13.28,0.031,277.3
2022-02-27T00:13:03,42.805,6.029,-0.013,-0.011,0.01,104.0,103.0,102.0,13.4,1505.2,325.6,-0.7,1.8,2470.678,13.29,0.017,229.8
2022-02-27T00:16:03,42.805,6.029,-0.019,0.013,-0.002,104.0,104.0,102.0,13.4,1505.2,325.0,-0.7,1.8,2470.671,13.29,0.023,304.4
2022-02-27T00:19:03,42.805,6.029,-0.036,0.013,-0.021,104.0,103.0,102.0,13.4,1505.2,330.3,-0.8,1.8,2470.717,13.29,0.038,289.9
2022-02-27T00:22:03,42.805,6.029,-0.018,-0.015,-0.009,104.0,104.0,101.0,13.4,1505.2,329.7,-0.8,1.8,2470.699,13.29,0.023,230.2
2022-02-27T00:25:03,42.805,6.029,-0.024,0.021,0.007,104.0,102.0,103.0,13.3,1505.2,332.0,-0.8,1.8,2470.692,13.29,0.031,311.2
2022-02-27T00:28:03,42.805,6.029,-0.006,0.002,0.002,104.0,103.0,102.0,13.3,1505.2,324.6,-0.8,1.8,2470.653,13.29,0.006,288.4
2022-02-27T00:31:03,42.805,6.029,-0.009,0.009,-0.01,105.0,104.0,104.0,13.4,1505.2,331.0,-0.8,1.8,2470.707,13.29,0.012,315.0
2022-02-27T00:34:03,42.805,6.029,-0.023,0.006,-0.027,105.0,102.0,102.0,13.4,1505.2,327.9,-0.8,1.8,2470.705,13.29,0.023,284.6
2022-02-27T00:37:03,42.805,6.029,-0.034,0.002,-0.002,102.0,103.0,102.0,13.4,1505.2,325.9,-0.8,1.8,2470.686,13.29,0.034,273.4
2022-02-27T00:40:03,42.805,6.029,-0.025,0.0,-0.002,104.0,104.0,102.0,13.4,1505.2,327.2,-0.8,1.8,2470.697,13.29,0.025,270.0
2022-02-27T00:43:03,42.805,6.029,-0.02,0.012,0.023,104.0,103.0,102.0,13.4,1505.2,330.8,-0.8,1.8,2470.696,13.29,0.023,301.0
2022-02-27T00:46:03,42.805,6.029,-0.017,0.018,-0.006,103.0,103.0,102.0,13.4,1505.2,330.9,-0.7,1.7,2470.684,13.29,0.024,316.6
2022-02-27T00:49:03,42.805,6.029,-0.019,-0.001,-0.024,103.0,104.0,101.0,13.4,1505.2,325.6,-0.7,1.8,2470.738,13.29,0.019,267.0
2022-02-27T00:52:03,42.805,6.029,-0.024,-0.006,0.012,102.0,104.0,102.0,13.4,1505.2,331.4,-0.8,1.9,2470.698,13.29,0.024,256.0
2022-02-27T00:55:03,42.805,6.029,-0.029,0.02,0.005,103.0,103.0,102.0,13.4,1505.2,330.5,-0.8,1.8,2470.738,13.29,0.035,304.6
2022-02-27T00:58:03,42.805,6.029,-0.025,0.018,-0.025,104.0,103.0,101.0,13.4,1505.2,323.8,-0.8,1.8,2470.699,13.29,0.03,305.8
2022-02-27T01:04:03,42.805,6.029,-0.021,0.011,-0.005,104.0,105.0,104.0,13.4,1505.2,329.6,-0.8,1.8,2470.745,13.29,0.023,297.6
2022-02-27T01:07:03,42.805,6.029,-0.018,0.006,0.016,103.0,103.0,103.0,13.4,1505.2,323.6,-0.8,1.8,2470.743,13.29,0.018,288.4
2022-02-27T01:10:03,42.805,6.029,-0.011,0.012,0.045,102.0,102.0,102.0,13.3,1505.2,328.9,-0.8,1.8,2470.734,13.29,0.016,317.5
2022-02-27T01:13:03,42.805,6.029,-0.03,-0.004,0.016,102.0,103.0,102.0,13.4,1505.2,330.4,-0.8,1.8,2470.78,13.29,0.03,262.4
2022-02-27T01:16:03,42.805,6.029,-0.029,0.025,0.0,104.0,103.0,102.0,13.4,1505.2,328.5,-0.7,1.8,2470.781,13.29,0.038,310.8
2022-02-27T01:19:03,42.805,6.029,-0.033,0.012,0.009,103.0,105.0,102.0,13.3,1505.2,323.3,-0.8,1.9,2470.76,13.29,0.035,290.0
2022-02-27T01:22:03,42.805,6.029,-0.035,-0.007,-0.036,105.0,102.0,102.0,13.4,1505.2,329.6,-0.8,1.9,2470.754,13.29,0.035,258.7
2022-02-27T01:25:03,42.805,6.029,-0.013,0.013,0.008,105.0,102.0,101.0,13.4,1505.2,324.9,-0.8,1.8,2470.747,13.29,0.018,315.0
2022-02-27T01:28:03,42.805,6.029,-0.018,-0.001,-0.007,104.0,101.0,102.0,13.4,1505.2,325.1,-0.8,1.8,2470.732,13.29,0.018,266.8
2022-02-27T01:31:03,42.805,6.029,-0.005,-0.009,0.014,103.0,102.0,102.0,13.3,1505.2,325.1,-0.8,1.8,2470.752,13.29,0.01,209.1
2022-02-27T01:34:03,42.805,6.029,-0.013,-0.007,0.009,103.0,104.0,102.0,13.3,1505.2,331.3,-0.7,1.9,2470.719,13.29,0.014,241.7
2022-02-27T01:37:03,42.805,6.029,-0.034,-0.005,-0.001,104.0,104.0,102.0,13.4,1505.2,329.8,-0.8,1.8,2470.738,13.29,0.034,261.6
2022-02-27T01:40:03,42.805,6.029,-0.018,-0.014,-0.029,104.0,103.0,104.0,13.4,1505.2,324.5,-0.7,1.8,2470.766,13.29,0.022,232.1
2022-02-27T01:43:03,42.805,6.029,-0.031,0.014,-0.017,104.0,103.0,102.0,13.4,1505.2,323.5,-0.7,1.8,2470.756,13.29,0.034,294.3
2022-02-27T01:46:03,42.805,6.029,-0.017,-0.004,-0.011,104.0,104.0,102.0,13.3,1505.2,328.9,-0.8,1.8,2470.754,13.29,0.017,256.8
2022-02-27T01:49:03,42.805,6.029,-0.02,0.002,-0.01,103.0,102.0,102.0,13.4,1505.2,331.9,-0.7,1.8,2470.734,13.29,0.02,275.7
2022-02-27T01:52:03,42.805,6.029,-0.004,-0.016,-0.015,104.0,103.0,102.0,13.4,1505.2,327.7,-0.8,1.8,2470.73,13.29,0.016,194.0
2022-02-27T01:55:03,42.805,6.029,0.0,0.0,0.003,104.0,104.0,101.0,13.4,1505.2,327.0,-0.7,1.8,2470.753,13.29,0.0,0.0
2022-02-27T01:58:03,42.805,6.029,-0.013,0.008,-0.014,105.0,102.0,101.0,13.3,1505.2,326.9,-0.8,1.8,2470.746,13.29,0.015,301.6
2022-02-27T02:04:03,42.805,6.029,-0.034,0.009,0.019,104.0,104.0,101.0,13.4,1505.2,328.6,-0.8,1.8,2470.784,13.29,0.035,284.8
2022-02-27T02:07:03,42.805,6.029,-0.023,0.0,-0.016,104.0,104.0,102.0,13.3,1505.2,322.8,-0.7,1.8,2470.788,13.29,0.023,270.0
2022-02-27T02:10:03,42.805,6.029,-0.015,0.009,-0.011,103.0,104.0,102.0,13.4,1505.2,326.1,-0.8,1.8,2470.827,13.29,0.017,301.0
2022-02-27T02:13:03,42.805,6.029,-0.024,0.02,0.014,103.0,104.0,102.0,13.3,1505.2,325.3,-0.8,1.8,2470.762,13.29,0.031,309.8
2022-02-27T02:16:03,42.805,6.029,-0.031,0.03,-0.027,103.0,105.0,102.0,13.4,1505.2,323.7,-0.7,1.8,2470.776,13.29,0.043,314.1
2022-02-27T02:19:03,42.805,6.029,-0.031,0.008,-0.019,105.0,105.0,102.0,13.4,1505.2,329.2,-0.8,1.8,2470.843,13.29,0.032,284.5
2022-02-27T02:22:03,42.805,6.029,-0.002,0.006,-0.002,104.0,103.0,103.0,13.4,1505.2,324.1,-0.7,1.9,2470.799,13.29,0.006,341.6
2022-02-27T02:25:03,42.805,6.029,-0.029,0.019,-0.007,103.0,103.0,102.0,13.4,1505.2,332.0,-0.7,1.8,2470.783,13.29,0.034,303.2
2022-02-27T02:28:03,42.805,6.029,-0.022,0.018,0.005,103.0,104.0,101.0,13.4,1505.2,324.3,-0.8,1.8,2470.791,13.29,0.028,309.3
2022-02-27T02:31:03,42.805,6.029,-0.001,0.007,0.008,104.0,104.0,101.0,13.3,1505.2,329.7,-0.7,1.8,2470.806,13.29,0.007,351.9
2022-02-27T02:34:03,42.805,6.029,-0.041,0.018,-0.003,102.0,105.0,101.0,13.4,1505.2,324.8,-0.8,1.8,2470.846,13.29,0.044,293.7
2022-02-27T02:37:03,42.805,6.029,-0.016,-0.008,-0.032,103.0,103.0,102.0,13.4,1505.2,327.3,-0.8,1.8,2470.797,13.29,0.017,243.4
2022-02-27T02:40:03,42.805,6.029,-0.037,0.011,-0.019,104.0,103.0,102.0,13.3,1505.2,328.6,-0.7,1.9,2470.792,13.29,0.038,286.6
2022-02-27T02:43:03,42.805,6.029,-0.031,0.006,-0.025,103.0,102.0,102.0,13.4,1505.2,329.9,-0.7,1.9,2470.797,13.29,0.031,281.0
2022-02-27T02:46:03,42.805,6.029,-0.032,0.014,-0.024,104.0,103.0,102.0,13.4,1505.2,330.3,-0.7,1.8,2470.782,13.29,0.034,293.6
2022-02-27T02:49:03,42.805,6.029,-0.011,0.004,0.0,105.0,103.0,102.0,13.3,1505.2,327.4,-0.8,1.8,2470.79,13.29,0.011,290.0
2022-02-27T02:52:03,42.805,6.029,-0.02,0.002,-0.016,102.0,105.0,102.0,13.4,1505.2,323.4,-0.8,1.8,2470.788,13.29,0.02,275.7
2022-02-27T02:55:03,42.805,6.029,-0.016,0.002,0.009,103.0,102.0,102.0,13.3,1505.2,325.9,-0.7,1.8,2470.786,13.29,0.016,277.1
2022-02-27T02:58:03,42.805,6.029,-0.002,0.001,0.003,104.0,101.0,103.0,13.4,1505.2,330.0,-0.7,1.8,2470.784,13.29,0.002,296.6
2022-02-27T03:04:03,42.805,6.029,0.0,-0.008,0.002,104.0,103.0,102.0,13.4,1505.2,325.8,-0.8,1.8,2470.843,13.29,0.008,180.0
2022-02-27T03:07:03,42.805,6.029,-0.005,0.009,0.003,103.0,105.0,102.0,13.4,1505.2,328.7,-0.8,1.8,2470.856,13.29,0.01,330.9
2022-02-27T03:10:03,42.805,6.029,0.01,-0.001,0.02,103.0,104.0,102.0,13.3,1505.2,330.8,-0.7,1.9,2470.857,13.29,0.01,95.7
2022-02-27T03:13:03,42.805,6.029,0.012,-0.013,-0.047,102.0,103.0,102.0,13.3,1505.2,329.3,-0.8,1.8,2470.877,13.29,0.017,137.3
2022-02-27T03:16:03,42.805,6.029,-0.004,0.015,0.007,109.0,103.0,103.0,13.4,1505.2,327.4,-0.7,1.8,2470.835,13.29,0.015,345.1
2022-02-27T03:19:03,42.805,6.029,0.001,0.016,-0.025,103.0,102.0,101.0,13.4,1505.2,330.6,-0.8,1.8,2470.867,13.29,0.016,3.6
2022-02-27T03:22:03,42.805,6.029,-0.029,-0.009,0.0,104.0,103.0,102.0,13.4,1505.2,325.2,-0.7,1.8,2470.831,13.29,0.03,252.8
2022-02-27T03:25:03,42.805,6.029,-0.014,0.001,0.034,103.0,103.0,102.0,13.4,1505.2,329.8,-0.7,1.8,2470.831,13.29,0.014,274.1
2022-02-27T03:28:03,42.805,6.029,0.017,0.006,-0.013,103.0,102.0,102.0,13.3,1505.2,323.2,-0.7,1.8,2470.823,13.29,0.018,70.6
2022-02-27T03:31:03,42.805,6.029,-0.008,-0.018,-0.021,102.0,103.0,102.0,13.4,1505.2,326.7,-0.8,1.8,2470.843,13.29,0.019,204.0
2022-02-27T03:34:03,42.805,6.029,-0.012,-0.01,-0.003,102.0,102.0,101.0,13.4,1505.2,330.3,-0.7,1.8,2470.85,13.29,0.015,230.2
2022-02-27T03:37:03,42.805,6.029,-0.006,-0.02,0.01,104.0,103.0,102.0,13.4,1505.2,327.1,-0.7,1.8,2470.875,13.29,0.02,196.7
2022-02-27T03:40:03,42.805,6.029,-0.014,0.001,-0.037,103.0,102.0,101.0,13.4,1505.2,330.1,-0.7,1.8,2470.841,13.29,0.014,274.1
2022-02-27T03:43:03,42.805,6.029,0.004,-0.013,-0.023,103.0,102.0,101.0,13.3,1505.2,326.9,-0.8,1.8,2470.818,13.29,0.013,162.9
2022-02-27T03:46:03,42.805,6.029,0.007,0.004,-0.006,102.0,103.0,102.0,13.4,1505.2,323.5,-0.8,1.8,2470.867,13.29,0.008,60.3
2022-02-27T03:49:03,42.805,6.029,-0.021,-0.002,-0.031,103.0,102.0,101.0,13.3,1505.2,327.8,-0.8,1.8,2470.857,13.29,0.021,264.6
2022-02-27T03:52:03,42.805,6.029,-0.01,0.013,-0.004,103.0,103.0,101.0,13.4,1505.2,324.5,-0.8,1.8,2470.888,13.29,0.016,322.4
2022-02-27T03:55:03,42.805,6.029,-0.013,-0.019,-0.03,102.0,102.0,101.0,13.4,1505.2,325.8,-0.8,1.8,2470.835,13.29,0.023,214.4
2022-02-27T03:58:03,42.805,6.029,0.016,0.003,-0.004,104.0,103.0,102.0,13.3,1505.2,332.5,-0.7,1.8,2470.87,13.29,0.016,79.4
2022-02-27T04:04:03,42.805,6.029,-0.006,-0.021,-0.019,101.0,102.0,103.0,13.3,1505.2,330.1,-0.7,1.8,2470.862,13.29,0.021,195.9
2022-02-27T04:07:03,42.805,6.029,-0.002,-0.014,0.005,105.0,103.0,100.0,13.4,1505.2,328.2,-0.8,1.8,2470.914,13.29,0.014,188.1
2022-02-27T04:10:03,42.805,6.029,-0.007,-0.01,0.012,104.0,102.0,101.0,13.4,1505.2,327.3,-0.8,1.8,2470.874,13.29,0.012,215.0
2022-02-27T04:13:03,42.805,6.029,-0.004,0.005,-0.001,102.0,102.0,101.0,13.3,1505.2,324.7,-0.8,1.8,2470.914,13.29,0.006,321.3
2022-02-27T04:16:03,42.805,6.029,-0.024,-0.003,-0.007,102.0,103.0,102.0,13.4,1505.2,325.2,-0.8,1.8,2470.911,13.29,0.024,262.9
2022-02-27T04:19:03,42.805,6.029,0.01,-0.009,-0.027,103.0,102.0,101.0,13.4,1505.2,325.1,-0.8,1.8,2470.888,13.29,0.013,132.0
2022-02-27T04:22:03,42.805,6.029,-0.006,-0.01,0.003,102.0,103.0,102.0,13.4,1505.2,324.8,-0.8,1.8,2470.862,13.29,0.011,211.0
2022-02-27T04:25:03,42.805,6.029,-0.007,0.004,-0.015,102.0,103.0,101.0,13.4,1505.2,327.0,-0.8,1.8,2470.871,13.29,0.008,299.7
2022-02-27T04:28:03,42.805,6.029,0.007,-0.005,0.0,103.0,104.0,102.0,13.3,1505.2,329.5,-0.8,1.8,2470.911,13.29,0.008,125.5
2022-02-27T04:31:03,42.805,6.029,0.0,-0.007,-0.006,103.0,103.0,103.0,13.4,1505.2,324.9,-0.7,1.8,2470.854,13.29,0.007,180.0
2022-02-27T04:34:03,42.805,6.029,0.005,-0.008,-0.03,103.0,104.0,101.0,13.4,1505.2,326.3,-0.7,1.8,2470.865,13.29,0.009,148.0
2022-02-27T04:37:03,42.805,6.029,0.002,0.012,0.002,104.0,103.0,102.0,13.4,1505.2,329.7,-0.8,1.8,2470.892,13.29,0.012,9.5
2022-02-27T04:40:03,42.805,6.029,-0.009,0.004,-0.016,104.0,101.0,100.0,13.3,1505.2,326.9,-0.8,1.8,2470.882,13.29,0.009,294.0
2022-02-27T04:43:03,42.805,6.029,-0.007,-0.002,-0.003,103.0,104.0,102.0,13.4,1505.2,326.6,-0.8,1.9,2470.896,13.29,0.007,254.1
2022-02-27T04:46:03,42.805,6.029,-0.01,0.001,-0.009,103.0,103.0,102.0,13.4,1505.2,325.8,-0.8,1.8,2470.862,13.29,0.01,275.7
2022-02-27T04:49:03,42.805,6.029,-0.001,-0.013,0.002,102.0,103.0,102.0,13.4,1505.2,326.0,-0.7,1.8,2470.875,13.29,0.013,184.4
2022-02-27T04:52:03,42.805,6.029,-0.007,-0.005,-0.031,105.0,103.0,101.0,13.4,1505.2,330.7,-0.7,1.9,2470.867,13.29,0.008,234.5
2022-02-27T04:55:03,42.805,6.029,0.003,-0.014,-0.008,105.0,103.0,101.0,13.4,1505.2,326.8,-0.8,1.8,2470.87,13.29,0.014,167.9
2022-02-27T04:58:03,42.805,6.029,-0.011,-0.001,-0.022,102.0,103.0,101.0,13.4,1505.2,331.8,-0.8,1.9,2470.872,13.29,0.011,264.8
2022-02-27T05:04:03,42.805,6.029,-0.01,-0.012,-0.013,103.0,103.0,103.0,13.4,1505.2,324.2,-0.8,1.8,2470.904,13.29,0.015,219.8
2022-02-27T05:07:03,42.805,6.029,-0.016,-0.02,-0.009,105.0,101.0,101.0,13.4,1505.2,327.2,-0.7,1.8,2470.885,13.29,0.025,218.7
2022-02-27T05:10:03,42.805,6.029,-0.016,-0.013,-0.003,104.0,103.0,101.0,13.3,1505.2,324.0,-0.7,1.8,2470.918,13.29,0.02,230.9
2022-02-27T05:13:03,42.805,6.029,-0.009,-0.012,-0.004,104.0,108.0,102.0,13.4,1505.2,328.2,-0.7,1.8,2470.886,13.29,0.015,216.9
2022-02-27T05:16:03,42.805,6.029,-0.009,-0.019,0.011,103.0,103.0,101.0,13.4,1505.2,327.3,-0.8,1.8,2470.907,13.29,0.021,205.3
2022-02-27T05:19:03,42.805,6.029,0.004,-0.033,-0.016,103.0,104.0,101.0,13.3,1505.2,329.0,-0.7,1.8,2470.937,13.29,0.033,173.1
2022-02-27T05:22:03,42.805,6.029,-0.002,-0.009,-0.011,106.0,101.0,101.0,13.4,1505.2,330.5,-0.8,1.8,2470.877,13.29,0.009,192.5
2022-02-27T05:25:03,42.805,6.029,-0.012,0.0,-0.015,101.0,103.0,101.0,13.4,1505.2,329.3,-0.8,1.8,2470.87,13.29,0.012,270.0
2022-02-27T05:28:03,42.805,6.029,0.005,0.0,-0.015,102.0,103.0,101.0,13.4,1505.2,331.0,-0.8,1.8,2470.862,13.29,0.005,90.0
2022-02-27T05:31:03,42.805,6.029,-0.021,-0.014,-0.018,103.0,103.0,102.0,13.4,1505.2,324.1,-0.8,1.8,2470.887,13.29,0.025,236.3
2022-02-27T05:34:03,42.805,6.029,-0.002,0.003,-0.032,103.0,102.0,102.0,13.4,1505.2,326.2,-0.8,1.8,2470.892,13.29,0.003,326.3
2022-02-27T05:37:03,42.805,6.029,-0.006,-0.025,-0.006,102.0,102.0,102.0,13.3,1505.2,325.4,-0.7,1.8,2470.889,13.29,0.025,193.5
2022-02-27T05:40:03,42.805,6.029,-0.009,-0.017,0.008,102.0,104.0,102.0,13.4,1505.2,326.5,-0.7,1.8,2470.86,13.29,0.019,207.9
2022-02-27T05:43:03,42.805,6.029,-0.008,-0.002,-0.029,104.0,103.0,101.0,13.4,1505.2,327.2,-0.8,1.8,2470.887,13.29,0.008,256.0
2022-02-27T05:46:03,42.805,6.029,0.014,-0.031,-0.028,103.0,102.0,101.0,13.4,1505.2,328.8,-0.7,1.8,2470.838,13.29,0.034,155.7
2022-02-27T05:49:03,42.805,6.029,0.0,-0.007,-0.014,104.0,103.0,102.0,13.4,1505.2,325.2,-0.7,1.8,2470.896,13.29,0.007,180.0
2022-02-27T05:52:03,42.805,6.029,-0.002,-0.018,-0.036,103.0,103.0,102.0,13.4,1505.2,323.2,-0.8,1.8,2470.864,13.29,0.018,186.3
2022-02-27T05:55:03,42.805,6.029,-0.024,-0.008,-0.013,103.0,104.0,101.0,13.4,1505.2,322.8,-0.7,1.8,2470.896,13.29,0.025,251.6
2022-02-27T05:58:03,42.805,6.029,-0.013,-0.018,-0.041,104.0,102.0,101.0,13.4,1505.2,323.3,-0.8,1.8,2470.841,13.29,0.022,215.8
2022-02-27T06:01:03,42.805,6.029,-0.002,0.0,-0.011,104.0,105.0,101.0,13.4,1505.2,325.4,-0.8,1.9,2470.845,13.29,0.002,270.0
2022-02-27T06:04:03,42.805,6.029,-0.026,-0.001,-0.032,104.0,102.0,102.0,13.4,1505.2,328.9,-0.7,1.8,2470.84,13.29,0.026,267.8
2022-02-27T06:07:03,42.805,6.029,-0.013,-0.021,-0.001,103.0,103.0,102.0,13.4,1505.2,327.8,-0.8,1.8,2470.88,13.29,0.024,211.8
2022-02-27T06:10:03,42.805,6.029,0.0,-0.005,-0.015,102.0,103.0,101.0,13.3,1505.2,326.0,-0.8,1.9,2470.863,13.29,0.005,180.0
2022-02-27T06:13:03,42.805,6.029,0.002,-0.025,-0.013,103.0,103.0,101.0,13.3,1505.2,325.4,-0.8,1.8,2470.871,13.29,0.025,175.4
2022-02-27T06:16:03,42.805,6.029,0.001,-0.022,-0.016,102.0,103.0,101.0,13.4,1505.2,329.6,-0.8,1.8,2470.904,13.29,0.022,177.4
2022-02-27T06:19:03,42.805,6.029,-0.01,-0.023,0.001,102.0,103.0,101.0,13.4,1505.2,332.3,-0.8,1.8,2470.871,13.29,0.025,203.5
2022-02-27T06:22:03,42.805,6.029,-0.004,-0.018,-0.017,102.0,103.0,101.0,13.4,1505.2,324.4,-0.8,1.8,2470.846,13.29,0.018,192.5
2022-02-27T06:25:03,42.805,6.029,-0.001,-0.005,0.003,101.0,102.0,102.0,13.4,1505.2,327.3,-0.8,1.8,2470.872,13.29,0.005,191.3
2022-02-27T06:28:03,42.805,6.029,-0.011,-0.02,-0.023,102.0,102.0,102.0,13.4,1505.2,332.3,-0.8,1.8,2470.856,13.29,0.022,208.8
2022-02-27T06:31:03,42.805,6.029,0.0,-0.013,0.005,104.0,103.0,101.0,13.4,1505.2,325.5,-0.7,1.8,2470.899,13.29,0.013,180.0
2022-02-27T06:34:03,42.805,6.029,-0.013,0.004,0.018,102.0,102.0,102.0,13.3,1505.2,325.0,-0.8,1.8,2470.849,13.29,0.013,287.1
2022-02-27T06:37:03,42.805,6.029,-0.008,-0.005,-0.01,102.0,102.0,101.0,13.4,1505.2,326.0,-0.8,1.8,2470.882,13.29,0.009,238.0
2022-02-27T06:40:03,42.805,6.029,-0.023,-0.023,-0.019,103.0,103.0,100.0,13.4,1505.2,330.1,-0.7,1.8,2470.876,13.29,0.032,225.0
2022-02-27T06:43:03,42.805,6.029,-0.032,-0.013,-0.015,102.0,100.0,102.0,13.4,1505.2,326.1,-0.7,1.8,2470.876,13.29,0.034,247.9
2022-02-27T06:46:03,42.805,6.029,0.002,-0.003,-0.023,103.0,103.0,102.0,13.4,1505.2,327.9,-0.8,1.8,2470.807,13.29,0.003,146.3
2022-02-27T06:49:03,42.805,6.029,-0.008,-0.029,-0.013,104.0,102.0,103.0,13.4,1505.2,326.4,-0.8,1.8,2470.837,13.29,0.03,195.4
2022-02-27T06:52:03,42.805,6.029,0.004,-0.017,-0.012,102.0,102.0,102.0,13.4,1505.2,323.9,-0.7,1.8,2470.836,13.29,0.017,166.8
2022-02-27T06:55:03,42.805,6.029,0.003,-0.028,-0.013,101.0,103.0,101.0,13.3,1505.2,329.4,-0.8,1.8,2470.865,13.29,0.028,173.9
2022-02-27T06:58:03,42.805,6.029,-0.013,-0.008,-0.039,102.0,102.0,102.0,13.4,1505.2,328.1,-0.8,1.8,2470.845,13.29,0.015,238.4
2022-02-27T07:04:03,42.805,6.029,-0.004,-0.001,-0.038,102.0,102.0,102.0,13.4,1505.2,324.6,-0.8,1.8,2470.913,13.28,0.004,256.0
2022-02-27T07:07:03,42.805,6.029,-0.012,-0.011,-0.02,103.0,101.0,101.0,13.4,1505.2,324.0,-0.8,1.8,2470.859,13.28,0.016,227.5
2022-02-27T07:10:03,42.805,6.029,-0.015,-0.015,0.007,103.0,102.0,101.0,13.3,1505.2,326.0,-0.7,1.8,2470.888,13.28,0.021,225.0
2022-02-27T07:13:03,42.805,6.029,-0.018,-0.01,0.002,102.0,103.0,102.0,13.4,1505.2,327.5,-0.8,1.8,2470.876,13.28,0.02,240.9
2022-02-27T07:16:03,42.805,6.029,-0.013,-0.021,-0.031,103.0,101.0,100.0,13.4,1505.2,328.7,-0.8,1.8,2470.849,13.28,0.024,211.8
2022-02-27T07:19:03,42.805,6.029,-0.026,-0.019,-0.025,104.0,102.0,101.0,13.4,1505.2,328.2,-0.7,1.8,2470.856,13.28,0.032,233.8
2022-02-27T07:22:03,42.805,6.029,-0.006,-0.02,-0.011,105.0,103.0,102.0,13.4,1505.2,331.6,-0.8,1.8,2470.851,13.28,0.02,196.7
2022-02-27T07:25:03,42.805,6.029,-0.021,-0.003,-0.02,104.0,103.0,101.0,13.4,1505.2,329.1,-0.8,1.9,2470.844,13.28,0.021,261.9
2022-02-27T07:28:03,42.805,6.029,0.006,-0.017,-0.011,102.0,103.0,101.0,13.4,1505.2,331.1,-0.8,1.8,2470.843,13.28,0.018,160.6
2022-02-27T07:31:03,42.805,6.029,-0.017,-0.021,-0.027,103.0,104.0,102.0,13.3,1505.2,331.9,-0.7,1.8,2470.854,13.28,0.027,219.0
2022-02-27T07:34:03,42.805,6.029,0.004,-0.028,-0.009,102.0,103.0,102.0,13.4,1505.2,325.8,-0.8,1.8,2470.849,13.28,0.028,171.9
2022-02-27T07:37:03,42.805,6.029,0.012,-0.015,-0.013,103.0,101.0,102.0,13.4,1505.2,326.3,-0.8,1.8,2470.802,13.28,0.019,141.3
2022-02-27T07:40:03,42.805,6.029,-0.005,-0.01,-0.002,103.0,103.0,101.0,13.4,1505.2,330.4,-0.7,1.8,2470.871,13.28,0.011,206.6
2022-02-27T07:43:03,42.805,6.029,-0.013,-0.022,-0.005,102.0,104.0,102.0,13.3,1505.2,328.7,-0.8,1.8,2470.872,13.28,0.025,210.6
2022-02-27T07:46:03,42.805,6.029,-0.033,-0.025,-0.04,102.0,102.0,102.0,13.4,1505.2,326.3,-0.8,1.8,2470.858,13.28,0.041,232.9
2022-02-27T07:49:03,42.805,6.029,-0.005,-0.021,-0.012,103.0,102.0,102.0,13.4,1505.2,329.0,-0.8,1.8,2470.842,13.28,0.021,193.4
2022-02-27T07:52:03,42.805,6.029,-0.002,-0.02,-0.023,103.0,103.0,101.0,13.4,1505.2,323.3,-0.7,1.8,2470.797,13.28,0.02,185.7
2022-02-27T07:55:03,42.805,6.029,-0.005,-0.052,-0.054,103.0,101.0,103.0,13.3,1505.2,326.2,-0.8,1.8,2470.852,13.28,0.052,185.5
2022-02-27T07:58:03,42.805,6.029,-0.004,0.004,0.01,103.0,103.0,101.0,13.4,1505.2,328.5,-0.8,1.8,2470.847,13.28,0.005,315.0
2022-02-27T08:04:03,42.805,6.029,-0.009,-0.033,-0.009,103.0,103.0,102.0,13.3,1505.2,331.5,-0.7,1.8,2470.875,13.28,0.034,195.3
2022-02-27T08:07:03,42.805,6.029,-0.023,-0.022,-0.021,103.0,102.0,101.0,13.4,1505.2,330.3,-0.7,1.8,2470.846,13.28,0.031,226.3
2022-02-27T08:10:03,42.805,6.029,-0.002,-0.01,-0.01,103.0,102.0,102.0,13.4,1505.2,329.2,-0.8,1.8,2470.84,13.28,0.01,191.3
2022-02-27T08:13:03,42.805,6.029,-0.014,-0.008,-0.036,102.0,102.0,102.0,13.4,1505.2,325.9,-0.8,1.8,2470.858,13.28,0.016,240.3
2022-02-27T08:16:03,42.805,6.029,0.0,-0.023,-0.046,103.0,103.0,102.0,13.4,1505.2,328.5,-0.7,1.8,2470.83,13.28,0.023,180.0
2022-02-27T08:19:03,42.805,6.029,-0.015,-0.014,-0.05,103.0,103.0,101.0,13.4,1505.2,325.1,-0.8,1.9,2470.847,13.28,0.02,227.0
2022-02-27T08:22:03,42.805,6.029,-0.013,-0.025,0.005,104.0,103.0,103.0,13.4,1505.2,328.7,-0.7,1.8,2470.855,13.28,0.028,207.5
2022-02-27T08:25:03,42.805,6.029,-0.012,-0.016,-0.042,104.0,103.0,101.0,13.4,1505.2,325.0,-0.8,1.8,2470.812,13.28,0.02,216.9
2022-02-27T08:28:03,42.805,6.029,0.0,-0.038,-0.031,103.0,104.0,101.0,13.4,1505.2,326.3,-0.8,1.8,2470.818,13.28,0.038,180.0
2022-02-27T08:31:03,42.805,6.029,-0.029,-0.002,-0.029,104.0,104.0,101.0,13.4,1505.2,327.0,-0.7,1.8,2470.856,13.28,0.029,266.1
2022-02-27T08:34:03,42.805,6.029,-0.015,-0.03,0.007,103.0,102.0,102.0,13.4,1505.2,325.2,-0.7,1.8,2470.844,13.28,0.033,206.6
2022-02-27T08:37:03,42.805,6.029,-0.021,-0.024,-0.027,102.0,103.0,101.0,13.3,1505.2,329.7,-0.7,1.8,2470.819,13.28,0.031,221.2
2022-02-27T08:40:03,42.805,6.029,-0.024,-0.016,-0.022,104.0,102.0,101.0,13.4,1505.2,329.4,-0.8,1.8,2470.814,13.28,0.028,236.3
2022-02-27T08:43:03,42.805,6.029,0.003,-0.026,-0.007,104.0,103.0,102.0,13.4,1505.2,328.6,-0.8,1.8,2470.836,13.29,0.026,173.4
2022-02-27T08:46:03,42.805,6.029,-0.021,-0.013,-0.018,105.0,102.0,102.0,13.4,1505.2,323.4,-0.7,1.8,2470.801,13.29,0.024,238.2
2022-02-27T08:49:03,42.805,6.029,-0.005,-0.025,-0.04,104.0,103.0,101.0,13.4,1505.2,331.2,-0.8,1.8,2470.806,13.29,0.025,191.3
2022-02-27T08:52:03,42.805,6.029,-0.001,-0.045,-0.046,104.0,103.0,101.0,13.4,1505.2,327.0,-0.8,1.8,2470.803,13.28,0.045,181.3
2022-02-27T08:55:03,42.805,6.029,-0.019,-0.015,-0.011,103.0,104.0,100.0,13.4,1505.2,327.4,-0.8,1.8,2470.78,13.28,0.024,231.7
2022-02-27T08:58:03,42.805,6.029,0.005,-0.034,-0.021,103.0,104.0,102.0,13.3,1505.2,327.6,-0.7,1.8,2470.802,13.28,0.034,171.6
2022-02-27T09:04:03,42.805,6.029,-0.008,-0.029,-0.041,103.0,103.0,102.0,13.4,1505.2,329.1,-0.8,1.8,2470.883,13.28,0.03,195.4
2022-02-27T09:07:03,42.805,6.029,-0.006,-0.032,-0.029,103.0,103.0,101.0,13.4,1505.2,326.8,-0.7,1.8,2470.814,13.28,0.032,190.6
2022-02-27T09:10:03,42.805,6.029,-0.003,-0.014,0.014,104.0,102.0,101.0,13.4,1505.2,329.5,-0.8,1.8,2470.85,13.28,0.014,192.1
2022-02-27T09:13:03,42.805,6.029,-0.004,-0.036,-0.027,103.0,104.0,101.0,13.4,1505.2,328.3,-0.7,1.8,2470.797,13.28,0.036,186.3
2022-02-27T09:16:03,42.805,6.029,-0.021,-0.014,-0.008,103.0,103.0,102.0,13.3,1505.2,330.4,-0.8,1.8,2470.826,13.28,0.025,236.3
2022-02-27T09:19:03,42.805,6.029,-0.009,-0.036,-0.013,104.0,103.0,102.0,13.3,1505.2,330.1,-0.7,1.9,2470.843,13.28,0.037,194.0
2022-02-27T09:22:03,42.805,6.029,-0.012,-0.029,-0.017,103.0,102.0,101.0,13.3,1505.2,329.2,-0.8,1.8,2470.8,13.28,0.031,202.5
2022-02-27T09:25:03,42.805,6.029,-0.004,-0.026,-0.022,104.0,104.0,102.0,13.4,1505.2,326.3,-0.8,1.8,2470.813,13.28,0.026,188.7
2022-02-27T09:28:03,42.805,6.029,-0.013,-0.009,0.0,104.0,102.0,102.0,13.3,1505.2,329.6,-0.8,1.8,2470.816,13.29,0.015,235.3
2022-02-27T09:31:03,42.805,6.029,0.003,-0.016,-0.01,103.0,103.0,101.0,13.4,1505.2,325.5,-0.8,1.8,2470.809,13.29,0.016,169.4
2022-02-27T09:34:03,42.805,6.029,-0.012,-0.019,-0.04,103.0,104.0,102.0,13.3,1505.2,325.0,-0.7,1.8,2470.807,13.29,0.022,212.3
2022-02-27T09:37:03,42.805,6.029,-0.028,-0.041,-0.018,103.0,102.0,103.0,13.4,1505.2,324.0,-0.8,1.8,2470.806,13.28,0.049,214.3
2022-02-27T09:40:03,42.805,6.029,-0.027,-0.013,-0.022,103.0,103.0,102.0,13.4,1505.2,331.7,-0.7,1.8,2470.791,13.28,0.029,244.3
2022-02-27T09:43:03,42.805,6.029,-0.024,-0.017,-0.042,104.0,104.0,100.0,13.4,1505.2,330.6,-0.8,1.8,2470.838,13.28,0.029,234.7
2022-02-27T09:46:03,42.805,6.029,0.008,-0.023,0.011,104.0,103.0,101.0,13.3,1505.2,322.6,-0.7,1.8,2470.755,13.28,0.024,160.8
2022-02-27T09:49:03,42.805,6.029,-0.016,-0.019,-0.025,105.0,103.0,103.0,13.3,1505.2,327.7,-0.8,1.8,2470.748,13.29,0.024,220.1